Mesquite, TX

1:07 PM CDT on June 22, 2017 (GMT -0500)
Mesquite Metro

Weather History for KHQZ - September, 2013

Change the Weather History Date:

Saturday, September 21, 2013

  Actual Average (KDFW) Record (KDFW)
Temperature  
Mean Temperature 72 °F -  
Max Temperature 82 °F 85 °F 99 °F (1956)
Min Temperature 63 °F 64 °F 45 °F (1983)
Cooling Degree Days 8    
Growing Degree Days 22 (Base 50)    
Moisture  
Dew Point 51 °F    
Average Humidity 52    
Maximum Humidity 79    
Minimum Humidity 23    
Precipitation  
Precipitation 0.07 in - - ()
Sea Level Pressure  
Sea Level Pressure 29.92 in    
Wind  
Wind Speed 10 mph (North)    
Max Wind Speed 17 mph    
Max Gust Speed 22 mph    
Visibility 10 miles    
Events      
Averages and records for this station are not official NWS values.
T = Trace of Precipitation, MM = Missing Value Source: NWS Daily Summary

Daily Weather History Graph

Daily Weather History Graph

Search for Another Location

Airport or City:

Trip Planner

Search our weather history database for the weather conditions in past years. The results will help you decide how hot, cold, wet, or windy it might be!

Date:

Astronomy

Sep. 21, 2013 Rise Set
Actual Time 7:13 AM CDT 7:23 PM CDT
Civil Twilight 6:49 AM CDT 7:48 PM CDT
Nautical Twilight 6:20 AM CDT 8:17 PM CDT
Astronomical Twilight 5:51 AM CDT 8:46 PM CDT
Moon 8:46 PM CDT (9/21) 9:23 AM CDT (9/21)
Length of Visible Light 12h 59m
Length of Day
12h 09m
Waning Gibbous, 94% of the Moon is Illuminated
Sep 21
Waning Gibbous
Sep 26
Last Quarter
Oct 4
New
Oct 11
First Quarter
Oct 18
Full

Hourly Weather History & Observations

Time (CDT) Temp. Dew Point Humidity Pressure Visibility Wind Dir Wind Speed Gust Speed Precip Events Conditions
12:15 AM 70.2 °F 63.5 °F 79% 29.92 in 10.0 mi North 13.8 mph - N/A   Clear
12:35 AM 69.8 °F 62.8 °F 78% 29.93 in 10.0 mi North 10.4 mph - 0.01 in   Mostly Cloudy
12:55 AM 69.1 °F 61.3 °F 76% 29.93 in 10.0 mi North 15.0 mph 18.4 mph 0.01 in   Overcast
1:15 AM 68.7 °F 60.4 °F 75% 29.93 in 10.0 mi North 8.1 mph - N/A   Mostly Cloudy
1:35 AM 68.5 °F 60.1 °F 74% 29.92 in 10.0 mi North 6.9 mph - N/A   Mostly Cloudy
1:55 AM 69.1 °F 59.0 °F 70% 29.92 in 10.0 mi North 13.8 mph 17.3 mph N/A   Overcast
2:15 AM 68.0 °F 59.0 °F 73% 29.93 in 10.0 mi NNW 8.1 mph - N/A   Overcast
2:35 AM 68.0 °F 57.7 °F 70% 29.93 in 10.0 mi North 12.7 mph 16.1 mph N/A   Overcast
2:55 AM 68.0 °F 57.4 °F 69% 29.93 in 10.0 mi North 10.4 mph - 0.01 in   Overcast
3:15 AM 67.3 °F 56.8 °F 69% 29.92 in 10.0 mi North 11.5 mph - N/A   Mostly Cloudy
3:35 AM 67.1 °F 56.7 °F 69% 29.92 in 10.0 mi North 11.5 mph 19.6 mph N/A   Scattered Clouds
3:55 AM 66.7 °F 56.5 °F 70% 29.92 in 10.0 mi North 11.5 mph 18.4 mph N/A   Clear
4:15 AM 66.2 °F 56.7 °F 71% 29.92 in 10.0 mi North 11.5 mph 17.3 mph N/A   Clear
4:35 AM 65.8 °F 56.8 °F 73% 29.92 in 10.0 mi North 11.5 mph - N/A   Clear
4:55 AM 65.5 °F 57.2 °F 75% 29.93 in 10.0 mi North 9.2 mph - N/A   Clear
5:15 AM 65.1 °F 57.4 °F 76% 29.93 in 10.0 mi North 9.2 mph - N/A   Clear
5:35 AM 64.9 °F 57.4 °F 76% 29.93 in 10.0 mi North 10.4 mph - N/A   Clear
5:55 AM 64.8 °F 57.2 °F 76% 29.93 in 10.0 mi North 10.4 mph - 0.01 in   Clear
6:15 AM 65.1 °F 56.5 °F 74% 29.94 in 10.0 mi North 15.0 mph 21.9 mph N/A   Clear
6:35 AM 64.9 °F 55.8 °F 72% 29.94 in 10.0 mi North 10.4 mph 19.6 mph N/A   Clear
6:55 AM 64.4 °F 55.0 °F 72% 29.95 in 10.0 mi North 12.7 mph 19.6 mph N/A   Clear
7:15 AM 64.4 °F 54.5 °F 70% 29.95 in 10.0 mi North 10.4 mph 19.6 mph N/A   Clear
7:35 AM 64.4 °F 54.7 °F 71% 29.95 in 10.0 mi North 12.7 mph 19.6 mph N/A   Clear
7:55 AM 64.4 °F 54.5 °F 70% 29.96 in 10.0 mi North 11.5 mph 18.4 mph N/A   Clear
8:15 AM 64.9 °F 54.7 °F 69% 29.96 in 10.0 mi North 9.2 mph 17.3 mph N/A   Clear
8:35 AM 65.3 °F 54.0 °F 67% 29.96 in 10.0 mi North 13.8 mph 20.7 mph N/A   Clear
8:55 AM 66.2 °F 53.4 °F 63% 29.97 in 10.0 mi NNE 8.1 mph 17.3 mph 0.01 in   Clear
9:15 AM 66.6 °F 52.9 °F 61% 29.98 in 10.0 mi NNE 11.5 mph - N/A   Clear
9:35 AM 67.8 °F 52.3 °F 58% 29.98 in 10.0 mi North 12.7 mph 17.3 mph N/A   Clear
9:55 AM 68.9 °F 52.0 °F 55% 29.99 in 10.0 mi North 13.8 mph 17.3 mph N/A   Clear
10:15 AM 69.6 °F 52.0 °F 53% 29.98 in 10.0 mi North 10.4 mph - N/A   Clear
10:35 AM 70.5 °F 51.1 °F 50% 29.98 in 10.0 mi North 8.1 mph - N/A   Clear
10:55 AM 71.6 °F 51.1 °F 48% 29.98 in 10.0 mi North 9.2 mph - N/A   Clear
11:15 AM 72.5 °F 50.2 °F 45% 29.98 in 10.0 mi North 11.5 mph - N/A   Clear
11:35 AM 73.4 °F 49.3 °F 42% 29.97 in 10.0 mi North 12.7 mph - N/A   Clear
11:55 AM 74.1 °F 47.5 °F 39% 29.97 in 10.0 mi North 10.4 mph - N/A   Clear
12:15 PM 75.6 °F 47.8 °F 37% 29.96 in 10.0 mi North 10.4 mph - 0.01 in   Clear
12:35 PM 76.5 °F 46.9 °F 35% 29.96 in 10.0 mi North 8.1 mph - 0.01 in   Clear
12:55 PM 77.0 °F 46.6 °F 34% 29.95 in 10.0 mi North 11.5 mph - 0.01 in   Clear
1:15 PM 77.9 °F 45.0 °F 31% 29.94 in 10.0 mi NNW 13.8 mph 18.4 mph N/A   Clear
1:35 PM 79.2 °F 44.4 °F 29% 29.94 in 10.0 mi North 13.8 mph - N/A   Clear
1:55 PM 79.7 °F 43.3 °F 28% 29.93 in 10.0 mi North 11.5 mph 17.3 mph N/A   Clear
2:15 PM 80.8 °F 44.1 °F 27% 29.91 in 10.0 mi North 13.8 mph - N/A   Clear
2:35 PM 81.1 °F 42.6 °F 26% 29.91 in 10.0 mi North 12.7 mph 19.6 mph N/A   Clear
2:55 PM 81.5 °F 42.6 °F 25% 29.90 in 10.0 mi NNW 17.3 mph - N/A   Clear
3:15 PM 82.0 °F 44.2 °F 26% 29.89 in 10.0 mi NNW 13.8 mph - N/A   Clear
3:35 PM 82.4 °F 44.1 °F 26% 29.89 in 10.0 mi North 10.4 mph - 0.01 in   Clear
3:55 PM 82.2 °F 43.0 °F 25% 29.88 in 10.0 mi North 12.7 mph 17.3 mph 0.01 in   Clear
4:15 PM 82.4 °F 42.6 °F 24% 29.88 in 10.0 mi NNW 11.5 mph 16.1 mph N/A   Clear
4:35 PM 82.6 °F 43.0 °F 25% 29.88 in 10.0 mi North 12.7 mph - N/A   Clear
4:55 PM 82.4 °F 41.9 °F 24% 29.87 in 10.0 mi North 9.2 mph 18.4 mph N/A   Clear
5:15 PM 82.6 °F 43.0 °F 25% 29.87 in 10.0 mi North 10.4 mph - N/A   Clear
5:35 PM 82.4 °F 41.2 °F 23% 29.87 in 10.0 mi North 10.4 mph - N/A   Clear
5:55 PM 81.9 °F 42.3 °F 25% 29.87 in 10.0 mi North 6.9 mph 10.4 mph N/A   Clear
6:15 PM 81.5 °F 42.3 °F 25% 29.87 in 10.0 mi NNE 5.8 mph - N/A   Clear
6:35 PM 81.0 °F 43.2 °F 26% 29.87 in 10.0 mi NNE 6.9 mph - N/A   Clear
6:55 PM 79.7 °F 43.2 °F 27% 29.87 in 10.0 mi NNE 4.6 mph - N/A   Clear
7:15 PM 77.9 °F 44.8 °F 31% 29.87 in 10.0 mi Calm Calm - N/A   Clear
7:35 PM 76.1 °F 45.7 °F 34% 29.87 in 10.0 mi Calm Calm - N/A   Clear
7:55 PM 75.2 °F 45.5 °F 35% 29.87 in 10.0 mi NE 3.5 mph - N/A   Clear
8:15 PM 74.3 °F 45.7 °F 36% 29.88 in 10.0 mi Calm Calm - N/A   Clear
8:35 PM 71.8 °F 48.6 °F 44% 29.88 in 10.0 mi Calm Calm - 0.01 in   Clear
8:55 PM 71.6 °F 48.9 °F 45% 29.89 in 10.0 mi Calm Calm - 0.01 in   Clear
9:15 PM 70.9 °F 48.6 °F 45% 29.89 in 10.0 mi Calm Calm - N/A   Clear
9:35 PM 70.3 °F 49.3 °F 47% 29.89 in 10.0 mi Calm Calm - N/A   Clear
9:55 PM 68.5 °F 51.4 °F 54% 29.89 in 10.0 mi Calm Calm - N/A   Clear
10:15 PM 65.8 °F 52.2 °F 61% 29.89 in 10.0 mi Calm Calm - N/A   Clear
10:35 PM 65.3 °F 52.2 °F 62% 29.90 in 10.0 mi Calm Calm - N/A   Clear
10:55 PM 63.7 °F 53.2 °F 69% 29.90 in 10.0 mi Calm Calm - N/A   Clear
11:15 PM 65.7 °F 52.2 °F 62% 29.90 in 10.0 mi Calm Calm - N/A   Clear
11:35 PM 63.7 °F 51.3 °F 64% 29.90 in 10.0 mi Calm Calm - N/A   Clear
11:55 PM 64.2 °F 51.3 °F 63% 29.90 in 10.0 mi North 3.5 mph - N/A   Clear